Location: �clusier
(49.9361°N, 2.7869°E)
Time: 20:00:24
(UTC+00:00)

Centaur D AC-29 - Pass Details

Date: 25 October 2021
Orbit: 563 x 36274 km, 26.9° (Epoch: 02 December)

Event Time Altitude Azimuth Distance (km) Brightness Sun altitude
Rises 22:59:37 0° 119° (ESE) 20,284 8.5 -51.5°
Reaches altitude 10° 23:52:20 10° 110° (ESE) 28,216 9.3 -52.0°
Maximum altitude 06:21:08 52° 132° (SE) 26,828 9.8 -1.7°
Drops below altitude 10° 08:05:11 10° 101° (ESE) 10,730 8.7 13.1°
Sets 08:10:37 0° 98° (E) 10,233 8.3 13.7°
